Regional Weather Roundup
Issued by NWS

Home | Current Version | Previous Version | Text Only | Print | Product List | Glossary On
Versions: 1 2 3 4 5 6 7 8 9 10 11 12 13 14 15 16 17 18 19 20 21 22 23 24 25 26 27 28 29 30 31 32 33 34 35 36 37 38 39 40 41 42 43 44 45 46 47 48 49 50
750
ASUS44 KJAN 181603
RWRMS

MISSISSIPPI HOURLY WEATHER ROUNDUP
NATIONAL WEATHER SERVICE JACKSON MS
1100 AM CDT SAT APR 18 2015

NOTE: "FAIR: INDICATES FEW OR NO CLOUDS BELOW 12,000 FEET WITH NO
SIGNIFICANT WEATHER AND/OR OBSTRUCTIONS TO VISIBILITY.

MSZ001>002-007>008-010>013-018>021-025>028-034>036-181700-
NORTHWEST MISSISSIPPI

CITY           SKY/WX    TMP DP  RH WIND       PRES   REMARKS
CLARKSDALE     CLOUDY    66  66 100 CALM      29.99R
CLEVELAND      CLOUDY    66  64  94 E8        29.96R
GREENWOOD      CLOUDY    67  60  78 SE8       29.95F
GREENVILLE     CLOUDY    68  62  81 SE9       29.96R
OLIVE BRANCH   PTSUNNY   66  66 100 S12       30.00R
OXFORD         CLOUDY    61  59  94 SE8       30.01R FOG
TUNICA         CLOUDY    68  63  83 S5        30.00R
$$

MSZ003>006-009-014>017-022>024-029>033-037>039-181700-
NORTHEAST MISSISSIPPI

CITY           SKY/WX    TMP DP  RH WIND       PRES   REMARKS
COLUMBUS AFB   CLOUDY    66  62  85 SE8       29.97F
CORINTH        PTSUNNY   68  63  83 E9        29.97F
GOLDN TRIANGLE CLOUDY    66  61  82 SE9       29.96F
STARKVILLE     CLOUDY    64  61  88 SE3       29.97F
TUPELO         CLOUDY    66  60  81 S7        29.99R
$$

MSZ040-058-181700-
CENTRAL MISSISSIPPI

CITY           SKY/WX    TMP DP  RH WIND       PRES   REMARKS
JACKSON INTL   CLOUDY    67  63  87 SE9       29.95S
JACKSON HAWKNS CLOUDY    68  63  84 VRB6      29.96R
MERIDIAN KEY   CLOUDY    66  61  84 E7        29.98S
MERIDIAN NAS   CLOUDY    67  61  81 SE5       29.98S
RAYMOND        CLOUDY    68  64  88 SE6       29.95R HAZE
VICKSBURG      CLOUDY    69  64  84 S7        29.95R
$$

MSZ059>079-181700-
SOUTH MISSISSIPPI

CITY           SKY/WX    TMP DP  RH WIND       PRES   REMARKS
BROOKHAVEN     PTSUNNY   70  70 100 E3        29.96R
HATTIESBURG    CLOUDY    68  66  93 SE10      29.97F
MCCOMB         CLOUDY    70  69  97 SE7       29.90F
NATCHEZ        CLOUDY    70  64  83 CALM      29.93R
PINE BELT      CLOUDY    66 N/A N/A SE9       29.97F
$$

MSZ080>082-181700-
COASTAL MISSISSIPPI

CITY           SKY/WX    TMP DP  RH WIND       PRES   REMARKS
BAY ST LOUIS   LGT RAIN  70  66  88 MISG      29.96F
BILOXI         LGT RAIN  71  71 100 SE6       29.97F
PASCAGOULA     LGT RAIN  70  69  97 CALM      29.99F FOG
GULFPORT       LGT RAIN  71  69  93 SE8       29.97F
$$



USA.gov is the U.S. government's official web portal to all federal, state and local government web resources and services.